Latest Weather Observations for Cape Wessel

IDD60801

Issued at 5:01 pm CST Monday 6 July 2015 (issued every 30 minutes, with the page automatically refreshed every 10 minutes)

About weather observations | Map of weather stations | Latest weather observations for NT | Other Formats
Station Details ID: 200786 Name: CAPE WESSEL Lat: -11.00 Lon: 136.76 Height: 18.0 m
Data from the previous 72 hours. | See also: Recent months for locations in Northern Territory
Date/Time
CST
Temp
°C
App
Temp
°C
Dew
Point
Rel
Hum
%
Delta-T
°C
Wind Press
QNH
hPa
Press
MSL
hPa
Rain
since 9 am
mm
Dir
 
Spd
km/h
Gust
km/h
Spd
kts
Gust
kts
06/05:00pm 26.0 23.8 20.3 71 3.7 E 32 37 17 20 1011.4 - 0.0
06/04:30pm 26.2 23.8 20.3 70 3.9 E 33 39 18 21 1011.3 - 0.0
06/04:00pm 26.1 24.1 20.7 72 3.5 E 32 39 17 21 1011.4 - 0.0
06/03:30pm 25.9 23.6 20.2 71 3.7 E 32 37 17 20 1011.4 - 0.0
06/03:00pm 25.9 23.6 20.2 71 3.7 E 32 39 17 21 1011.4 1011.3 0.0
06/02:30pm 26.3 25.3 20.4 70 3.9 E 26 33 14 18 1011.7 - 0.0
06/02:00pm 26.0 25.9 21.4 76 3.1 ENE 24 30 13 16 1012.1 - 0.0
06/01:30pm 24.1 22.6 21.8 87 1.5 ENE 32 41 17 22 1012.3 - 0.0
06/01:07pm 24.3 21.1 20.2 78 2.7 ENE 37 43 20 23 1012.6 - 0.0
06/01:00pm 25.6 27.5 22.1 81 2.3 ENE 15 17 8 9 1012.5 - 0.0
06/12:30pm 24.6 24.4 22.1 86 1.7 E 26 35 14 19 1012.8 - 0.0
06/12:00pm 25.7 26.0 21.6 78 2.7 E 22 35 12 19 1013.1 1013.0 0.0
06/11:30am 26.3 26.7 22.4 79 2.6 ENE 24 32 13 17 1013.4 - 0.0
06/11:00am 27.0 25.0 21.1 70 3.9 E 33 41 18 22 1013.7 - 0.0
06/10:30am 27.7 26.6 21.7 70 4.0 E 30 35 16 19 1014.0 - 0.0
06/10:00am 27.2 25.4 21.2 69 4.0 E 32 37 17 20 1014.1 - 0.0
06/09:30am 26.8 25.1 20.6 69 4.1 E 30 35 16 19 1014.2 - 0.0
06/09:00am 26.1 23.9 20.4 71 3.7 ESE 32 35 17 19 1014.1 1014.0 0.2
06/08:30am 26.9 25.2 20.5 68 4.2 E 30 37 16 20 1014.0 - 0.2
06/08:00am 26.1 24.3 20.4 71 3.7 ESE 30 37 16 20 1013.7 - 0.2
06/07:30am 25.4 24.0 20.4 74 3.3 ESE 28 37 15 20 1013.5 - 0.2
06/07:00am 25.2 23.5 20.5 75 3.1 ESE 30 37 16 20 1013.3 - 0.2
06/06:30am 25.1 23.4 20.6 76 2.9 ESE 30 35 16 19 1013.0 - 0.2
06/06:00am 25.3 23.4 21.0 77 2.8 ESE 32 41 17 22 1012.9 1012.8 0.2
06/05:30am 25.0 23.0 20.7 77 2.8 ESE 32 39 17 21 1012.8 - 0.2
06/05:00am 25.3 24.0 21.4 79 2.6 E 30 37 16 20 1012.8 - 0.2
06/04:30am 25.2 22.9 20.2 74 3.3 E 32 37 17 20 1012.6 - 0.2
06/04:00am 25.1 23.8 20.6 76 2.9 E 28 35 15 19 1012.4 - 0.2
06/03:30am 25.1 23.2 20.1 74 3.2 E 30 39 16 21 1012.4 - 0.2
06/03:00am 25.1 23.2 20.1 74 3.2 E 30 37 16 20 1012.5 1012.4 0.2
06/02:30am 25.1 23.3 20.4 75 3.1 E 30 37 16 20 1012.6 - 0.2
06/02:00am 25.3 23.8 21.0 77 2.8 E 30 35 16 19 1012.8 - 0.2
06/01:30am 25.5 23.4 20.5 74 3.3 E 32 39 17 21 1013.0 - 0.2
06/01:00am 25.2 23.7 20.9 77 2.8 E 30 37 16 20 1013.1 - 0.2
06/12:30am 25.1 24.2 20.6 76 2.9 E 26 32 14 17 1013.3 - 0.2
06/12:00am 25.2 24.4 20.9 77 2.8 E 26 32 14 17 1013.5 1013.4 0.2
 
Date/Time
CST
Temp
°C
App
Temp
°C
Dew
Point
Rel
Hum
%
Delta-T
°C
Wind Press
QNH
hPa
Press
MSL
hPa
Rain
since 9 am
mm
Dir
 
Spd
km/h
Gust
km/h
Spd
kts
Gust
kts
05/11:30pm 25.4 24.6 20.9 76 3.0 E 26 32 14 17 1013.7 - 0.2
05/11:00pm 25.3 24.1 20.8 76 3.0 E 28 33 15 18 1013.8 - 0.2
05/10:30pm 25.4 24.2 20.9 76 3.0 E 28 33 15 18 1014.0 - 0.2
05/10:00pm 25.4 24.7 21.1 77 2.8 E 26 32 14 17 1013.9 - 0.2
05/09:30pm 25.3 24.5 20.8 76 3.0 E 26 32 14 17 1014.0 - 0.2
05/09:00pm 25.5 25.3 21.2 77 2.8 E 24 30 13 16 1013.7 1013.6 0.2
05/08:30pm 25.3 24.9 21.0 77 2.8 E 24 30 13 16 1013.5 - 0.2
05/08:00pm 25.4 25.4 20.9 76 3.0 E 22 28 12 15 1013.3 - 0.2
05/07:30pm 25.5 25.4 20.7 75 3.1 E 22 28 12 15 1013.2 - 0.2
05/07:00pm 25.6 24.6 20.4 73 3.4 E 26 32 14 17 1012.8 - 0.2
05/06:30pm 25.8 24.8 20.4 72 3.5 E 26 32 14 17 1012.6 - 0.2
05/06:00pm 25.6 26.1 21.1 76 3.0 ESE 20 28 11 15 1012.3 1012.2 0.2
05/05:30pm 26.3 27.0 21.5 75 3.2 ESE 20 26 11 14 1012.2 - 0.2
05/05:00pm 26.6 27.1 21.1 72 3.6 E 20 26 11 14 1012.1 - 0.2
05/04:30pm 27.1 27.6 21.2 70 3.9 E 20 26 11 14 1012.1 - 0.2
05/04:00pm 27.7 28.6 21.5 69 4.1 E 19 24 10 13 1012.0 - 0.2
05/03:30pm 27.5 27.8 20.8 67 4.4 E 20 26 11 14 1012.0 - 0.2
05/03:00pm 27.7 28.0 21.5 69 4.1 E 22 28 12 15 1012.1 1012.0 0.2
05/02:30pm 27.6 27.5 21.4 69 4.1 ESE 24 30 13 16 1012.3 - 0.2
05/02:00pm 27.7 27.5 21.3 68 4.3 E 24 32 13 17 1012.4 - 0.2
05/01:30pm 27.8 27.8 21.6 69 4.1 ESE 24 30 13 16 1012.8 - 0.2
05/01:00pm 27.8 28.1 21.6 69 4.1 ESE 22 28 12 15 1013.3 - 0.2
05/12:30pm 27.7 26.5 21.5 69 4.1 E 30 37 16 20 1013.4 - 0.2
05/12:00pm 26.6 24.6 20.7 70 3.9 ESE 32 35 17 19 1013.6 1013.5 0.2
05/11:30am 27.5 26.2 21.3 69 4.1 ESE 30 37 16 20 1014.2 - 0.2
05/11:00am 27.0 25.2 21.1 70 3.9 ESE 32 39 17 21 1014.4 - 0.0
05/10:30am 27.2 26.2 21.2 69 4.0 ESE 28 33 15 18 1014.8 - 0.0
05/10:00am 26.6 25.1 20.9 71 3.8 ESE 30 35 16 19 1014.8 - 0.0
05/09:30am 25.7 24.4 20.7 74 3.3 ESE 28 33 15 18 1014.8 - 0.0
05/09:00am 25.2 23.5 20.5 75 3.1 ESE 30 37 16 20 1014.9 1014.8 0.2
05/08:30am 25.2 23.8 20.5 75 3.1 ESE 28 35 15 19 1014.6 - 0.2
05/08:00am 25.5 23.9 20.1 72 3.5 ESE 28 35 15 19 1014.3 - 0.2
05/07:30am 25.4 23.2 20.4 74 3.3 ESE 32 37 17 20 1013.9 - 0.2
05/07:00am 24.9 22.7 20.4 76 2.9 ESE 32 39 17 21 1013.6 - 0.2
05/06:30am 24.6 21.9 19.2 72 3.5 ESE 32 39 17 21 1013.3 - 0.2
05/06:00am 24.9 22.4 19.7 73 3.4 ESE 32 37 17 20 1013.1 1013.0 0.2
05/05:30am 25.0 22.2 19.1 70 3.8 ESE 32 39 17 21 1012.9 - 0.2
05/05:00am 25.0 22.2 19.1 70 3.8 ESE 32 39 17 21 1012.6 - 0.2
05/04:30am 25.0 22.6 19.1 70 3.8 ESE 30 37 16 20 1012.6 - 0.2
05/04:00am 25.2 22.8 19.1 69 3.9 ESE 30 39 16 21 1012.5 - 0.2
05/03:30am 25.2 22.5 19.3 70 3.8 ESE 32 37 17 20 1012.5 - 0.2
05/03:00am 25.2 22.5 19.3 70 3.8 ESE 32 37 17 20 1012.5 1012.4 0.2
05/02:30am 25.3 22.6 19.7 71 3.6 ESE 33 41 18 22 1012.7 - 0.2
05/02:00am 25.3 22.2 19.7 71 3.6 E 35 43 19 23 1012.7 - 0.2
05/01:30am 25.3 22.6 19.7 71 3.6 E 33 43 18 23 1012.9 - 0.2
05/01:00am 25.2 22.7 19.8 72 3.5 ESE 32 39 17 21 1012.9 - 0.2
05/12:30am 25.2 22.3 19.3 70 3.8 E 33 43 18 23 1013.0 - 0.2
05/12:00am 25.2 21.9 19.3 70 3.8 E 35 43 19 23 1013.0 1012.9 0.2
 
Date/Time
CST
Temp
°C
App
Temp
°C
Dew
Point
Rel
Hum
%
Delta-T
°C
Wind Press
QNH
hPa
Press
MSL
hPa
Rain
since 9 am
mm
Dir
 
Spd
km/h
Gust
km/h
Spd
kts
Gust
kts
04/11:30pm 25.0 22.3 19.6 72 3.5 E 33 41 18 22 1013.2 - 0.2
04/11:00pm 25.0 22.2 19.4 71 3.6 E 33 41 18 22 1013.2 - 0.2
04/10:30pm 24.5 21.7 19.1 72 3.4 E 32 37 17 20 1013.4 - 0.2
04/10:00pm 25.3 23.6 19.7 71 3.6 E 28 33 15 18 1013.5 - 0.2
04/09:30pm 25.0 23.4 19.1 70 3.8 ESE 26 32 14 17 1013.4 - 0.2
04/09:00pm 24.7 24.5 19.8 74 3.2 ESE 20 26 11 14 1013.4 1013.3 0.2
04/08:30pm 23.7 20.5 18.6 73 3.2 ESE 33 41 18 22 1013.3 - 0.2
04/08:00pm 23.5 21.8 19.8 80 2.4 ESE 28 35 15 19 1013.1 - 0.2
04/07:30pm 25.2 24.2 19.6 71 3.6 SE 24 30 13 16 1012.8 - 0.0
04/07:00pm 25.2 24.5 19.6 71 3.6 ESE 22 30 12 16 1012.6 - 0.0
04/06:30pm 25.0 24.7 19.6 72 3.5 ESE 20 24 11 13 1012.5 - 0.0
04/06:00pm 25.1 24.6 19.0 69 3.9 ESE 20 28 11 15 1012.3 1012.2 0.0
04/05:30pm 25.1 23.7 18.8 68 4.0 ESE 24 30 13 16 1012.1 - 0.0
04/05:00pm 25.5 23.7 18.7 66 4.3 ESE 26 32 14 17 1011.7 - 0.0
04/04:30pm 25.5 24.3 19.2 68 4.0 ESE 24 28 13 15 1011.5 - 0.0
04/04:00pm 25.3 23.6 19.0 68 4.0 ESE 26 30 14 16 1011.3 - 0.0
04/03:30pm 25.8 23.3 19.7 69 3.9 E 32 39 17 21 1011.3 - 0.0
04/03:00pm 25.5 22.0 20.3 73 3.4 E 39 46 21 25 1011.3 1011.2 0.0
04/02:30pm 26.8 25.1 18.9 62 5.1 E 26 35 14 19 1011.3 - 0.0
04/02:00pm 26.6 24.8 19.5 65 4.6 ESE 28 33 15 18 1011.7 - 0.0
04/01:30pm 27.6 26.3 19.9 63 5.0 ESE 26 35 14 19 1012.1 - 0.0
04/01:00pm 27.8 25.5 20.1 63 5.0 ESE 32 41 17 22 1012.5 - 0.0
04/12:30pm 27.5 25.3 20.3 65 4.7 ESE 32 39 17 21 1012.9 - 0.0
04/12:00pm 27.5 25.7 21.1 68 4.2 E 32 37 17 20 1013.2 1013.1 0.0
04/11:30am 27.4 25.1 21.2 69 4.1 E 35 43 19 23 1013.6 - 0.0
04/11:23am 27.4 24.8 21.4 70 4.0 E 37 43 20 23 1013.7 - 0.0
04/11:00am 28.2 26.2 20.0 61 5.4 SE 30 37 16 20 1014.1 - 0.0
04/10:30am 28.0 25.6 19.2 58 5.7 SE 30 35 16 19 1014.3 - 0.0
04/10:00am 27.8 26.0 19.6 61 5.3 SE 28 35 15 19 1014.6 - 0.0
04/09:30am 27.1 24.9 18.7 60 5.4 ESE 28 33 15 18 1014.7 - 0.0
04/09:00am 26.8 24.7 18.9 62 5.1 ESE 28 35 15 19 1014.7 1014.6 0.0
04/08:30am 26.4 24.6 18.8 63 4.9 ESE 26 33 14 18 1014.5 - 0.0
04/08:00am 25.9 23.7 18.6 64 4.6 SE 28 39 15 21 1014.1 - 0.0
04/07:30am 25.4 23.8 19.3 69 3.9 SE 26 33 14 18 1013.8 - 0.0
04/07:00am 24.4 23.1 19.0 72 3.4 SE 24 30 13 16 1013.6 - 0.0
04/06:30am 24.2 22.3 18.6 71 3.5 SE 26 32 14 17 1013.4 - 0.0
04/06:00am 24.2 23.2 18.8 72 3.4 SE 22 26 12 14 1013.4 1013.3 0.0
04/05:30am 24.4 22.4 18.3 69 3.8 SE 26 30 14 16 1013.3 - 0.0
04/05:00am 24.4 22.6 18.8 71 3.6 ESE 26 32 14 17 1013.2 - 0.0
04/04:30am 24.5 22.8 18.9 71 3.6 ESE 26 33 14 18 1013.3 - 0.0
04/04:00am 24.4 23.8 19.7 75 3.0 SE 22 28 12 15 1013.3 - 0.0
04/03:30am 24.6 22.3 18.5 69 3.9 ESE 28 33 15 18 1013.3 - 0.0
04/03:00am 24.6 22.1 18.8 70 3.7 ESE 30 35 16 19 1013.3 1013.2 0.0
04/02:30am 24.7 21.8 18.9 70 3.7 ESE 32 37 17 20 1013.4 - 0.0
04/02:00am 24.7 22.4 19.3 72 3.5 ESE 30 37 16 20 1013.5 - 0.0
04/01:30am 24.6 22.7 20.1 76 2.9 ESE 30 39 16 21 1013.4 - 0.0
04/01:00am 24.2 22.2 19.9 77 2.8 ESE 30 39 16 21 1013.6 - 0.0
04/12:30am 23.7 21.1 19.8 79 2.5 ESE 33 44 18 24 1013.7 - 0.0
04/12:00am 24.7 22.9 19.5 73 3.3 ESE 28 35 15 19 1013.8 1013.7 0.0
 
Date/Time
CST
Temp
°C
App
Temp
°C
Dew
Point
Rel
Hum
%
Delta-T
°C
Wind Press
QNH
hPa
Press
MSL
hPa
Rain
since 9 am
mm
Dir
 
Spd
km/h
Gust
km/h
Spd
kts
Gust
kts
03/11:30pm 25.0 22.9 19.8 73 3.4 ESE 30 35 16 19 1014.3 - 0.0
03/11:00pm 24.9 23.4 19.5 72 3.5 ESE 26 33 14 18 1014.2 - 0.0
03/10:30pm 25.1 23.0 19.7 72 3.5 ESE 30 37 16 20 1014.4 - 0.0
03/10:00pm 25.4 23.2 20.4 74 3.3 ESE 32 39 17 21 1014.5 - 0.0
03/09:30pm 25.2 23.0 19.6 71 3.6 ESE 30 33 16 18 1014.5 - 0.0
03/09:00pm 25.1 23.1 19.2 70 3.8 ESE 28 35 15 19 1014.2 1014.1 0.0
03/08:30pm 25.1 23.4 19.7 72 3.5 ESE 28 35 15 19 1013.9 - 0.0
03/08:00pm 25.1 23.8 20.6 76 2.9 ESE 28 33 15 18 1013.7 - 0.0
03/07:30pm 25.1 23.9 20.1 74 3.2 ESE 26 32 14 17 1013.4 - 0.0
03/07:00pm 25.0 23.3 19.8 73 3.4 SE 28 33 15 18 1013.1 - 0.0
03/06:30pm 25.0 22.2 19.1 70 3.8 SE 32 37 17 20 1012.9 - 0.0
03/06:00pm 24.4 23.8 20.5 79 2.5 S 24 30 13 16 1012.7 1012.6 0.0
03/05:30pm 24.5 22.9 20.0 76 2.9 S 28 37 15 20 1012.6 - 0.0

Other Formats:

Comma delimited format used in spreadsheet applications
http://www.bom.gov.au/fwo/IDD60801/IDD60801.94147.axf

JavaScript Object Notation format (JSON) in row-major order
http://www.bom.gov.au/fwo/IDD60801/IDD60801.94147.json